Weather in Druzhba

Ukraine / Sumi District     52°02′28″N   33°56′37″E
temp.,
°C
wind,
m/s
gust,
m/s
humid.,
%
clouds,
%
prec.,
mm/h
press.,
hPa
HPBL,
m
18 october, mon
mon1800:00+7w3659100 0.0 1018299
03:00+7wsw4861100 0.0 1017359
06:00+6w487295 0.0 1017396
09:00+6w497399 0.0 1017482
12:00+8w6964100 0.0 1017800
15:00+9w6866100 0.0 1016881
18:00+8nw4770100 0.0 1017943
21:00+6nw4691100 1.0 1017780
19 october, tue
tue1900:00+5nw4891100 0.6 1018393
03:00+3wnw389225 0.6 1018211
06:00+1wnw49890 0.0 1019229
09:00+2nw59845 0.0 1021361
12:00+6nw576819 0.0 1021863
15:00+6nw6962100 0.1 10211548
18:00+4nw5106774 0.1 1023504
21:00+2wnw358239 0.1 1024121
20 october, wed
wed2000:000nw3884100 0.0 1025184
03:00−1nw368463 0.0 1026136
06:00−1nw238393 0.0 102748
09:00+2sw22715 0.0 1027143
12:00+6sw4553100 0.0 1026653
15:00+7ssw6859100 0.0 1023765
18:00+5s61366100 0.0 1022442
21:00+6ssw71660100 0.0 1019476
21 october, thu
thu2100:00+6ssw81784100 1.7 1017509
03:00+8ssw81779100 3.4 1015515
06:00+8sw7168069 0.0 1014432
09:00+9sw71680100 0.0 1013442
12:00+11sw7157492 0.0 1012580
15:00+14ssw81568100 0.0 1010632
18:00+12ssw81773100 0.0 1010557
21:00+11ssw81871100 0.0 1008557
22 october, fri
fri2200:00+11sw81768100 0.0 1007520
03:00+11sw71470100 0.0 1007427
06:00+9sw513816 0.0 1008279
09:00+9wsw5128393 0.0 1009386
12:00+13wsw696679 0.0 1010710
15:00+14wsw5857100 0.0 1011841
18:00+11ssw47735 0.0 1012117
21:00+9ssw4877100 0.0 1011122